COSMOS 1195

Satellite information

Favourite Embed

Satellite Type and Status

PAYLOADIN ORBIT

Key statistics

Satellite COSMOS 1195 at a glance.

Uptime

16553

Days in orbit

Revolutions

≈ 12.5

Per day

Orbit

LEO

Low Earth Orbit

Inclination

74.0

Latest

Satellite identification and parameters

Extended collection of information and parameters for COSMOS 1195.

Object identification

Identified? True

Debris? False

Object name: COSMOS 1195

International designator: 1980-058D

Object number (NORAD): 11878

Object ID (CCSDS): 11878

Country: COMMONWEALTH OF INDEPENDENT STATES (CIS)

Current information (Y/N): Y

RCS size: MEDIUM

Orbital parameters

Period: 115.144 minutes

Inclination: 74.018 deg

SMA: 7840.072 km

Apoapsis: 1473.919 km

Periapsis: 1449.955 km

RAAN: 234.9422 deg

Eccentricy: 0.0015283

Argument of periapsis: 74.5181 deg

Mean anomaly: 358.2566 deg

Mean motion: 12.50612234 rev/day

Mean motion (dot): -0.00000017 rev/day2

B* drag term: -0.000007935492 1/REarth

Two-line elements (TLE)

Creation date: Nov. 1, 2025, 7:40 p.m.

Reference frame: TEME

Reference center: EARTH

Epoch: Nov. 1, 2025, 3:29 p.m. UTC

TLE line 0: 0 COSMOS 1195

TLE line 1: 1 11878U 80058D 25305.64527487 -.00000017 00000-0 -79355-5 0 9998

TLE line 2: 2 11878 74.0180 234.9422 0015283 74.5181 358.2566 12.50612234 68913

Live tracking on map

Real-time ground track for satellite COSMOS 1195.

In-orbit conjunctions

There are no conjunctions computed for COSMOS 1195, at the moment. Check back to stay up to date, as we update our databases every day.

Go to all conjunctions

Associated space launch

Optical film-return reconnaissance satellite

COSMOS 1195 was lifted into orbit during the mission ‘Soyuz U | Zenit-6U 22’, on board a Soyuz U space rocket.

The launch took place on July 9, 1980, 12:40 p.m. from 41/1.

For more information about the launch, click the button.

Launch to space Soyuz U | Zenit-6U 22
Soyuz U | Zenit-6U 22

Agency: N/A

Status: Launch Successful

Launch date: July 9, 1980, 12:40 p.m. UTC

Rocket: Soyuz U

Launch pad: 41/1

Location: Plesetsk Cosmodrome, Russian Federation

...

Latest news about this satellite

There are no fresh news available about this satellite. Check back as we update our databases every day.


Newsletter sign-up

Weekly statistics, charts and insights to help you stay on top of the space industry.